Location: Vancouver
(49.2500°N, 123.1330°W)
Time: 13:00:36
(UTC-07:00)

Iridium 35 - Visible Passes

Search period start: 06 July 2015 00:00
Search period end: 16 July 2015 00:00
Orbit: 776 x 779 km, 86.4° (Epoch: 06 July)

Date Brightness Start Highest point End Pass type
(mag) Time Alt. Az. Time Alt. Az. Time Alt. Az.
06 Jul 5.6 00:03:07 16° SSW 00:07:07 53° W 00:12:14 10° N visible
06 Jul 5.0 23:29:29 17° S 23:33:31 89° W 23:38:47 10° N visible
07 Jul 7.4 01:12:18 10° W 01:15:10 14° WNW 01:17:50 10° NW visible
07 Jul 5.3 22:55:51 15° SSE 23:00:01 54° E 23:05:08 10° NNE visible
08 Jul 6.9 00:36:59 10° SW 00:41:10 23° WNW 00:45:17 10° NNW visible
08 Jul 6.0 22:22:13 10° SE 22:26:39 32° E 22:31:16 10° NNE visible
09 Jul 6.2 00:02:40 11° SW 00:07:20 38° WNW 00:12:12 10° N visible
09 Jul 6.6 21:49:50 10° ESE 21:53:22 19° ENE 21:57:04 10° NNE visible
09 Jul 5.3 23:29:00 13° SSW 23:33:38 65° W 23:38:51 10° N visible
10 Jul 7.7 01:14:48 10° WNW 01:15:37 10° WNW 01:16:09 10° NW visible
10 Jul 5.0 22:55:20 12° S 23:00:05 75° E 23:05:19 10° N visible
11 Jul 7.4 00:38:01 10° WSW 00:41:32 17° WNW 00:44:53 10° NNW visible
11 Jul 5.5 22:21:46 10° SSE 22:26:38 43° E 22:31:35 10° NNE visible
12 Jul 6.7 00:03:05 10° SW 00:07:36 28° WNW 00:12:03 10° NNW visible
12 Jul 6.2 21:49:05 10° SE 21:53:18 26° E 21:57:36 10° NNE visible
12 Jul 5.9 23:28:47 10° SSW 23:33:49 47° W 23:38:51 10° N visible
13 Jul 5.1 22:54:57 10° S 23:00:10 80° W 23:05:26 10° N visible
14 Jul 7.6 00:39:31 10° W 00:41:56 13° WNW 00:44:07 10° NW visible
14 Jul 5.2 22:21:33 10° SSE 22:26:40 60° E 22:31:49 10° N visible
15 Jul 7.2 00:03:55 10° WSW 00:07:54 21° WNW 00:11:47 10° NNW visible
15 Jul 5.8 21:48:35 10° SSE 21:53:16 35° E 21:58:00 10° NNE visible
15 Jul 6.5 23:29:16 10° SW 23:34:02 34° WNW 23:38:46 10° NNW visible
